Location: Kawakawa
(35.3830°S, 174.0670°E)
Time: 10:02:25
(UTC+13:00)

A-11 Canister half - Pass Details

Date: 08 December 2019
Orbit: 1525 x 1684 km, 47.3° (Epoch: 22 January)

Event Time Altitude Azimuth Distance (km) Brightness Sun altitude
Rises 04:26:18 0° 244° (WSW) 4,762 11.4 -16.4°
Reaches altitude 10° 04:29:55 10° 254° (WSW) 3,796 10.8 -15.9°
Maximum altitude 04:37:36 28° 308° (NW) 2,694 9.7 -14.8°
Drops below altitude 10° 04:45:29 10° 1° (N) 3,874 10.7 -13.6°
Sets 04:49:16 0° 12° (NNE) 4,876 11.4 -13.0°
